[[{"header":{"parameterUnit":"m.s-1","parameterCategory":1,"la1":30.2991,"la2":30.254,"lo1":-89.0895,"lo2":-89.0444,"dy":0.0017,"dx":0.0017,"nx":28,"ny":28,"refTime":"2023-11-14T03:00:00:Z","depth":0,"parameterNumber":2,"parameterNumberName":"U-component_of_WINDS"},"data":[0,0,0,0,0,0,0,0,0,0,0,0,0,0,0,0,0,0,0,0,0,0,0,0,0,0,0,0,0,0,0,0,0,0,0,0,0,0,0,0,0,0,0,0,0,0,0,0,0,0,0,0,0,0,0,0,0,0,-5.6668,-5.6668,0,-5.6712,-5.6713,-5.6713,-5.6572,-5.6568,-5.6564,-5.656,-5.6605,-5.661,-5.6615,0,0,0,0,0,0,0,0,0,0,0,0,0,-5.646,-5.6465,-5.6668,-5.6669,-5.6669,-5.6712,-5.6713,-5.6714,-5.6573,-5.6568,-5.6563,-5.6558,-5.6603,-5.6609,-5.6615,0,0,0,0,0,0,0,0,0,0,0,0,0,-5.6532,-5.6466,-5.6668,-5.6604,-5.6599,-5.6712,-5.6713,-5.6714,-5.6574,-5.6568,-5.6561,-5.6555,-5.6601,-5.6609,-5.6616,-5.6793,0,0,-5.664,-5.6644,0,0,0,0,0,0,0,0,-5.6528,-5.654,-5.6613,-5.6609,-5.6603,-5.663,-5.6656,-5.674,-5.6576,-5.6584,-5.656,-5.6552,-5.6619,-5.6624,-5.6647,-5.6795,-5.6797,-5.6641,-5.6646,-5.6649,-5.6651,0,0,0,0,0,0,0,-5.6524,-5.6537,-5.6685,-5.6614,-5.6608,-5.6573,-5.6576,-5.6671,-5.6637,-5.6582,-5.6572,-5.658,-5.6614,-5.664,-5.6647,-5.6798,-5.6641,-5.6648,-5.6652,-5.6655,-5.7094,-5.71,0,0,0,0,0,0,-5.6527,-5.6534,-5.6684,-5.6687,-5.6549,-5.6582,-5.6586,-5.6628,-5.6635,-5.663,-5.6585,-5.6573,-5.663,-5.6638,-5.6648,-5.6856,-5.6649,-5.6656,-5.6661,-5.7087,-5.7095,-5.7103,0,0,0,0,0,0,-5.6523,-5.6542,-5.6682,-5.6608,-5.6623,-5.6592,-5.6641,-5.6632,-5.6657,-5.6637,-5.663,-5.6617,-5.6625,-5.6637,-5.6758,-5.6855,-5.666,-5.6667,-5.7078,-5.7089,-5.7099,-5.7273,0,0,0,0,0,0,-5.6518,-5.6541,-5.6608,-5.661,-5.6628,-5.6793,-5.6647,-5.6638,-5.6671,-5.6656,-5.6665,-5.6661,-5.6621,-5.6747,-5.6766,-5.6863,-5.6673,-5.707,-5.7083,-5.7096,-5.7259,-5.7289,-5.7314,0,0,0,0,0,-5.6511,-5.6655,-5.6612,-5.6631,-5.6711,-5.6799,-5.6808,-5.6759,-5.668,-5.6747,-5.6734,-5.6661,-5.6842,-5.6761,-5.6781,-5.6881,-5.7063,-5.7079,-5.7095,-5.7246,-5.7283,-5.7313,0,0,0,0,0,0,-5.6665,-5.6655,-5.6607,-5.6756,-5.678,-5.6775,-5.6858,-5.6799,-5.6845,-5.6829,-5.6765,-5.6769,-5.6902,-5.6903,-5.6813,-5.7053,-5.6939,-5.6959,-5.7047,-5.7082,-5.7109,-5.7106,-5.6679,0,0,0,0,0,-5.6717,-5.6789,-5.6776,-5.6909,-5.6923,-5.6889,-5.6925,-5.6885,-5.6907,-5.6916,-5.6911,-5.6935,-5.6996,-5.7039,-5.7095,-5.7258,-5.7258,-5.7337,-5.7364,-5.7387,-5.7406,-5.7493,-5.7528,-5.7154,-5.7154,-5.7154,0,0,-5.6824,-5.6827,-5.6877,-5.694,-5.6953,-5.703,-5.6898,-5.6984,-5.704,-5.6928,-5.7043,-5.7041,-5.7063,-5.7206,-5.7269,-5.7211,-5.7509,-5.7407,-5.7425,-5.7432,-5.7512,-5.7548,-5.7579,-5.7165,-5.7163,-5.7161,0,0,-5.7059,-5.7068,-5.7181,-5.7197,-5.7218,-5.7195,-5.7222,-5.7226,-5.722,-5.7334,-5.7252,-5.7318,-5.7426,-5.7445,-5.7469,-5.7711,-5.7645,-5.773,-5.7875,-5.7961,-5.799,-5.8016,-5.8103,-5.8135,-5.7749,-5.7749,-5.775,0,-5.7189,-5.7301,-5.7246,-5.7338,-5.7369,-5.7271,-5.7384,-5.7402,-5.7442,-5.7465,-5.74,-5.7534,-5.7541,-5.7688,-5.7747,-5.7769,-5.7799,-5.773,-5.799,-5.8016,-5.8039,-5.8121,-5.8154,-5.776,-5.7758,-5.7757,-5.7756,0,-5.7461,-5.754,-5.7628,-5.7669,-5.7709,-5.7812,-5.7772,-5.7819,-5.7776,-5.7759,-5.7876,-5.7882,-5.7938,-5.7969,-5.7927,-5.811,-5.8074,-5.8001,-5.7885,-5.8086,-5.8162,-5.8193,-5.7774,-5.7771,-5.7768,-5.7765,0,0,-5.7796,-5.7804,-5.7838,-5.7855,-5.7872,-5.7932,-5.803,-5.8084,-5.8127,-5.8156,-5.8237,-5.8331,-5.8263,-5.8291,-5.825,-5.8325,-5.8518,-5.8242,-5.8242,-5.8294,-5.8721,-5.8777,-5.8815,-5.8474,-5.848,-5.8484,-5.8719,0,-5.8027,-5.8196,-5.8148,-5.8317,-5.839,-5.8298,-5.8383,-5.8403,-5.839,-5.8449,-5.8433,-5.8502,-5.8406,-5.8422,-5.8492,-5.848,-5.8603,-5.8462,-5.8549,-5.8553,-5.8548,-5.8854,-5.8914,-5.9135,-5.8749,-5.8754,-5.8757,0,-5.8321,-5.8363,-5.8539,-5.8544,-5.8573,-5.8651,-5.8697,-5.8755,-5.8775,-5.876,-5.8791,-5.8735,-5.8831,-5.8714,-5.8846,-5.8752,-5.8784,-5.8783,-5.8791,-5.8798,-5.8668,-5.8871,-5.9205,-5.9239,-5.8804,-5.88,-5.8797,0,-5.8549,-5.8649,-5.8768,-5.8785,-5.8794,-5.8851,-5.8857,-5.8871,-5.8907,-5.8947,-5.897,-5.9021,-5.9049,-5.909,-5.9049,-5.8968,-5.9188,-5.9067,-5.9179,-5.918,-5.9231,-5.9228,-5.9576,-5.925,-5.925,-5.9249,-5.9248,0,-5.8813,-5.8925,-5.887,-5.8944,-5.9066,-5.901,-5.9132,-5.9128,-5.9141,-5.9211,-5.9134,-5.9202,-5.9144,-5.9206,-5.9175,-5.929,-5.9303,-5.9294,-5.9284,-5.9301,-5.9303,-5.9323,-5.9307,-5.9258,-5.9256,-5.9254,-5.9252,0,-5.9089,-5.9057,-5.918,-5.9178,-5.918,-5.9271,-5.9269,-5.9336,-5.9317,-5.9407,-5.9425,-5.9396,-5.9465,-5.9429,-5.95,-5.9479,-5.9628,-5.9597,-5.9622,-5.9614,-5.9728,-5.9719,-6.0102,-6.015,-5.9792,-5.9796,-5.9799,0,-5.9261,-5.9345,-5.9352,-5.9394,-5.9406,-5.9474,-5.951,-5.9458,-5.9499,-5.9529,-5.9593,-5.9656,-5.9704,-5.982,-5.9804,-5.9859,-5.9829,-5.996,-5.9837,-5.9852,-5.9833,-5.9829,-5.9838,-5.9985,-5.9989,-5.9993,-5.9995,0,-5.957,-5.955,-5.9605,-5.9657,-5.9702,-5.974,-5.977,-5.9809,-5.9757,-5.9807,-5.9878,-5.9915,-5.9989,-6.0053,-6.01,-6.0105,-6.0043,-6.0034,-6.0063,-6.0082,-6.0094,-6.009,-5.9691,-6.0026,-6.0023,-6.0021,-6.0019,-6.0018,-5.9799,-5.987,-5.9887,-5.9951,-5.9969,-6.0,-6.0063,-6.0052,-6.011,-6.0166,-6.0131,-6.0215,-6.0232,-6.0289,-6.0303,-6.0367,-6.0315,-6.0357,-6.0368,-6.0379,-6.0395,-6.0083,-6.0376,-6.0375,-6.0374,-6.0373,-6.0372,0,-6.0105,-6.0111,-6.0172,-6.0217,-6.0269,-6.0205,-6.0235,-6.0282,-6.0357,-6.0378,-6.0427,-6.0509,-6.057,-6.056,-6.0616,-6.0669,-6.0642,-6.0686,-6.0682,-6.0684,-6.0438,-6.0408,-6.0707,-6.0707,-6.0707,-6.0707,-6.0707,-6.0706,-6.0271,-6.0387,-6.0369,-6.0493,-6.0498,-6.0579,-6.0602,-6.063,-6.0647,-6.0742,-6.0793,-6.0785,-6.0795,-6.085,-6.0904,-6.0899,-6.0924,-6.0979,-6.0964,-6.0735,-6.0702,-6.067,-6.0642,-6.0984,-6.0985,-6.1205,-6.1207,-6.1208]},{"header":{"parameterUnit":"m.s-1","parameterCategory":1,"la1":30.2991,"la2":30.254,"lo1":-89.0895,"lo2":-89.0444,"dy":0.0017,"dx":0.0017,"nx":28,"ny":28,"refTime":"2023-11-14T03:00:00:Z","depth":0,"parameterNumber":3,"parameterNumberName":"V-component_of_WINDS"},"data":[0,0,0,0,0,0,0,0,0,0,0,0,0,0,0,0,0,0,0,0,0,0,0,0,0,0,0,0,0,0,0,0,0,0,0,0,0,0,0,0,0,0,0,0,0,0,0,0,0,0,0,0,0,0,0,0,0,0,-4.2005,-4.2005,0,-4.2003,-4.2003,-4.2003,-4.1943,-4.1942,-4.194,-4.1939,-4.1937,-4.1939,-4.194,0,0,0,0,0,0,0,0,0,0,0,0,0,-4.1957,-4.1958,-4.2005,-4.2005,-4.2005,-4.2003,-4.2003,-4.2003,-4.1944,-4.1942,-4.194,-4.1938,-4.1937,-4.1938,-4.194,0,0,0,0,0,0,0,0,0,0,0,0,0,-4.1969,-4.1959,-4.2005,-4.1975,-4.1973,-4.2003,-4.2003,-4.2003,-4.1944,-4.1942,-4.1939,-4.1937,-4.1936,-4.1938,-4.194,-4.2,0,0,-4.1947,-4.1948,0,0,0,0,0,0,0,0,-4.1968,-4.1971,-4.198,-4.1977,-4.1974,-4.1971,-4.1985,-4.2002,-4.1945,-4.1955,-4.1939,-4.1936,-4.195,-4.1951,-4.1956,-4.1999,-4.1999,-4.1947,-4.1948,-4.1949,-4.195,0,0,0,0,0,0,0,-4.1968,-4.1971,-4.2004,-4.198,-4.1977,-4.1962,-4.1961,-4.1988,-4.1966,-4.1954,-4.1949,-4.195,-4.1948,-4.1954,-4.1955,-4.1999,-4.1947,-4.1949,-4.195,-4.1951,-4.209,-4.2092,0,0,0,0,0,0,-4.1971,-4.197,-4.2004,-4.2004,-4.1966,-4.1964,-4.1963,-4.1974,-4.1965,-4.1962,-4.1952,-4.1947,-4.1952,-4.1953,-4.1955,-4.2022,-4.1949,-4.1951,-4.1952,-4.2087,-4.209,-4.2093,0,0,0,0,0,0,-4.197,-4.1975,-4.2004,-4.1986,-4.1989,-4.1968,-4.1981,-4.1976,-4.1981,-4.1964,-4.1959,-4.1962,-4.195,-4.1952,-4.1988,-4.2022,-4.1952,-4.1954,-4.2084,-4.2088,-4.2091,-4.2159,0,0,0,0,0,0,-4.1969,-4.1975,-4.1997,-4.1987,-4.199,-4.2038,-4.1983,-4.1977,-4.1985,-4.1979,-4.1972,-4.1968,-4.1948,-4.1986,-4.1991,-4.2023,-4.1955,-4.2081,-4.2086,-4.209,-4.2153,-4.2164,-4.2173,0,0,0,0,0,-4.1968,-4.2017,-4.1999,-4.2003,-4.2018,-4.204,-4.2042,-4.2017,-4.1988,-4.201,-4.1998,-4.1969,-4.2017,-4.199,-4.1995,-4.2029,-4.2079,-4.2085,-4.209,-4.2149,-4.2162,-4.2173,0,0,0,0,0,0,-4.2032,-4.2015,-4.1995,-4.2042,-4.2043,-4.203,-4.2058,-4.2032,-4.2042,-4.2036,-4.2005,-4.2004,-4.2045,-4.204,-4.201,-4.2085,-4.2043,-4.205,-4.2086,-4.2098,-4.2108,-4.2108,-4.1957,0,0,0,0,0,-4.2052,-4.2072,-4.2056,-4.2099,-4.21,-4.2079,-4.2088,-4.2069,-4.2069,-4.2069,-4.206,-4.2061,-4.2076,-4.2087,-4.21,-4.2153,-4.215,-4.2178,-4.2188,-4.2197,-4.2203,-4.2228,-4.224,-4.2111,-4.2111,-4.211,0,0,-4.2093,-4.2086,-4.21,-4.2112,-4.211,-4.2131,-4.208,-4.2104,-4.2119,-4.2073,-4.2106,-4.21,-4.2099,-4.2143,-4.2162,-4.214,-4.2238,-4.2204,-4.221,-4.2212,-4.2235,-4.2248,-4.2258,-4.2114,-4.2114,-4.2113,0,0,-4.2178,-4.2175,-4.221,-4.2209,-4.2207,-4.2192,-4.2201,-4.2192,-4.2185,-4.2218,-4.2183,-4.2201,-4.2228,-4.2228,-4.2232,-4.2316,-4.2288,-4.2321,-4.2373,-4.2399,-4.2409,-4.2418,-4.2446,-4.2457,-4.2327,-4.2327,-4.2327,0,-4.2229,-4.2259,-4.2232,-4.2258,-4.2263,-4.2221,-4.2256,-4.2257,-4.2259,-4.2264,-4.224,-4.2272,-4.2269,-4.2312,-4.2332,-4.2337,-4.2345,-4.2321,-4.2409,-4.2418,-4.2426,-4.2453,-4.2464,-4.2331,-4.2331,-4.233,-4.233,0,-4.2322,-4.2343,-4.2371,-4.2374,-4.2382,-4.2413,-4.239,-4.2402,-4.2382,-4.2369,-4.2403,-4.2397,-4.2407,-4.2416,-4.2398,-4.2456,-4.2443,-4.2415,-4.2372,-4.2443,-4.2468,-4.2478,-4.2337,-4.2335,-4.2334,-4.2333,0,0,-4.2448,-4.2434,-4.2445,-4.2444,-4.2438,-4.2454,-4.2482,-4.2492,-4.2503,-4.2506,-4.2528,-4.2552,-4.2525,-4.2529,-4.251,-4.2532,-4.2598,-4.2501,-4.2501,-4.2518,-4.2661,-4.2681,-4.2694,-4.2579,-4.2581,-4.2583,-4.266,0,-4.2529,-4.2576,-4.2551,-4.2601,-4.262,-4.258,-4.2604,-4.2603,-4.2592,-4.2606,-4.2594,-4.261,-4.2575,-4.2577,-4.2597,-4.2585,-4.2626,-4.258,-4.2599,-4.26,-4.26,-4.2707,-4.2729,-4.2803,-4.267,-4.2672,-4.2673,0,-4.2631,-4.2637,-4.2688,-4.2677,-4.2684,-4.2706,-4.2712,-4.2726,-4.2724,-4.2714,-4.2719,-4.2693,-4.272,-4.2678,-4.2713,-4.2682,-4.2689,-4.2685,-4.2687,-4.2687,-4.2641,-4.2709,-4.2825,-4.2836,-4.2688,-4.2687,-4.2686,0,-4.2716,-4.2737,-4.277,-4.2772,-4.276,-4.2776,-4.2772,-4.2767,-4.2774,-4.278,-4.2784,-4.2793,-4.2798,-4.2805,-4.2783,-4.2755,-4.2821,-4.2777,-4.2813,-4.2814,-4.2829,-4.2828,-4.2947,-4.2835,-4.2834,-4.2834,-4.2834,0,-4.2809,-4.2842,-4.2808,-4.2829,-4.2864,-4.2835,-4.2871,-4.2862,-4.2858,-4.2876,-4.2842,-4.286,-4.2829,-4.2844,-4.2827,-4.2858,-4.2861,-4.2853,-4.2848,-4.2856,-4.2857,-4.2859,-4.2853,-4.2837,-4.2837,-4.2836,-4.2835,0,-4.291,-4.2889,-4.2923,-4.2908,-4.2905,-4.2932,-4.2919,-4.2937,-4.2924,-4.2946,-4.295,-4.2929,-4.2944,-4.2922,-4.2936,-4.2924,-4.2967,-4.2954,-4.2967,-4.2963,-4.3,-4.2996,-4.3124,-4.3139,-4.3018,-4.3019,-4.302,0,-4.2971,-4.2995,-4.2982,-4.2991,-4.2989,-4.3004,-4.3011,-4.2983,-4.2991,-4.2989,-4.3007,-4.3019,-4.3027,-4.3053,-4.3039,-4.3048,-4.3035,-4.3079,-4.3037,-4.3043,-4.3035,-4.3033,-4.3035,-4.3088,-4.309,-4.3091,-4.3092,0,-4.308,-4.3067,-4.3078,-4.3084,-4.3092,-4.3097,-4.3098,-4.3108,-4.3078,-4.3089,-4.3103,-4.3109,-4.3122,-4.3134,-4.314,-4.3135,-4.3109,-4.3105,-4.3114,-4.3121,-4.3128,-4.3124,-4.299,-4.3102,-4.3101,-4.3101,-4.31,-4.31,-4.3161,-4.318,-4.3174,-4.3186,-4.3184,-4.3186,-4.3201,-4.3189,-4.32,-4.3208,-4.3191,-4.3209,-4.3205,-4.3209,-4.3208,-4.3222,-4.3203,-4.3216,-4.3219,-4.3222,-4.3227,-4.3126,-4.3223,-4.3223,-4.3222,-4.3222,-4.3222,0,-4.3267,-4.3261,-4.3272,-4.3275,-4.3284,-4.3257,-4.3257,-4.3267,-4.3283,-4.3281,-4.3289,-4.3305,-4.3316,-4.3303,-4.3312,-4.3325,-4.3313,-4.3328,-4.3327,-4.3326,-4.3244,-4.3235,-4.3338,-4.3338,-4.3338,-4.3338,-4.3338,-4.3338,-4.3324,-4.3353,-4.334,-4.3369,-4.3362,-4.3379,-4.3381,-4.3382,-4.338,-4.3399,-4.3408,-4.3399,-4.3392,-4.3399,-4.3408,-4.3404,-4.3408,-4.3428,-4.3419,-4.3343,-4.3332,-4.3321,-4.3312,-4.3429,-4.343,-4.3499,-4.35,-4.3501]}]]